Regional Weather Roundup
Issued by NWS Little Rock, AR

Home | Current Version | Previous Version | Text Only | Print | Product List | Glossary Off
Versions: 1 2 3 4 5 6 7 8 9 10 11 12 13 14 15 16 17 18 19 20 21 22 23 24 25 26 27 28 29 30 31 32 33 34 35 36 37 38 39 40 41 42 43 44 45 46 47 48 49 50

121
ASUS44 KLZK 171812
RWRLZK

WEATHER ROUNDUP FOR ARKANSAS
NATIONAL WEATHER SERVICE LITTLE ROCK AR
1200 PM CST TUE JAN 17 2017

NOTE: "FAIR" INDICATES FEW OR NO CLOUDS BELOW 12,000 FEET WITH NO
SIGNIFICANT WEATHER AND/OR OBSTRUCTIONS TO VISIBILITY.

ARZ001-003-010-029-171900-
NORTHWEST ARKANSAS

CITY           SKY/WX    TMP DP  RH WIND       PRES   REMARKS
FAYETTEVILLE   CLOUDY    39  36  89 W8        30.16S
6HR MIN TEMP:  37; 6HR MAX TEMP:  39;

FORT SMITH     CLOUDY    44  35  70 W12       30.18F
6HR MIN TEMP:  35; 6HR MAX TEMP:  45;

HARRISON       CLOUDY    42  37  82 W9        30.11F
6HR MIN TEMP:  39; 6HR MAX TEMP:  43;

BENTONVILLE    CLOUDY   N/A N/A N/A W9        30.16S
ROGERS         CLOUDY    39  36  89 W9        30.15F
6HR MIN TEMP:  37; 6HR MAX TEMP:  39;

SILOAM SPGS    CLOUDY    39  34  81 W8        30.15F
6HR MIN TEMP:  37; 6HR MAX TEMP:  39;

HIGHFILL       CLOUDY    40  35  83 W9        30.15F
6HR MIN TEMP:  38; 6HR MAX TEMP:  40;

SPRINGDALE     CLOUDY    39  36  87 W9G15     30.16F
$$

ARZ004-005-016-171900-
NORTH CENTRAL ARKANSAS

CITY           SKY/WX    TMP DP  RH WIND       PRES   REMARKS
BATESVILLE     PTSUNNY   50  39  66 W9        30.12F
6HR MIN TEMP:  45; 6HR MAX TEMP:  50;

FLIPPIN        CLOUDY    45  34  65 NW9       30.10F
6HR MIN TEMP:  41; 6HR MAX TEMP:  45;

MTN HOME       CLOUDY    43  37  79 VRB5      30.10F
6HR MIN TEMP:  40; 6HR MAX TEMP:  43;

$$

ARZ040-041-171900-
WEST CENTRAL ARKANSAS

CITY           SKY/WX    TMP DP  RH WIND       PRES   REMARKS
MENA           SUNNY     52  41  66 CALM      30.15F
MOUNT IDA      MOSUNNY   54  38  54 VRB6      30.12S
6HR MIN TEMP:  43; 6HR MAX TEMP:  54;

$$

ARZ009-017-025-026-028-171900-
NORTHEAST ARKANSAS

CITY           SKY/WX    TMP DP  RH WIND       PRES   REMARKS
CORNING        CLOUDY    46  41  81 W16       30.11F
JONESBORO      PTSUNNY   50  42  74 NW9       30.11F
6HR MIN TEMP:  47; 6HR MAX TEMP:  50;

NEWPORT        MOSUNNY   52  43  71 NW8       30.11
6HR MIN TEMP:  46; 6HR MAX TEMP:  52;

WALNUT RIDGE   CLOUDY    48  37  66 W13       30.11F
6HR MIN TEMP:  43; 6HR MAX TEMP:  52;

BLYTHEVILLE    CLOUDY    54  45  71 W9        30.09F
6HR MIN TEMP:  49; 6HR MAX TEMP:  56; 6HR PCP: TRACE;

NW BLYTHEVILLE PTSUNNY   54  45  71 W12       30.09F
$$

ARZ022-023-033-042-044-171900-
CENTRAL ARKANSAS

CITY           SKY/WX    TMP DP  RH WIND       PRES   REMARKS
LITTLE ROCK    CLOUDY    53  41  63 NW8       30.14F
6HR MIN TEMP:  46; 6HR MAX TEMP:  53;

N LITTLE ROCK    N/A     50  41  71 N6        30.15S
6HR MIN TEMP:  44; 6HR MAX TEMP:  51;

SEARCY         MOSUNNY   52  41  66 W9        30.14F
6HR MIN TEMP:  47; 6HR MAX TEMP:  52;

HOT SPRINGS    PTSUNNY   52  41  66 W8        30.15S
6HR MIN TEMP:  46; 6HR MAX TEMP:  53;

RUSSELLVILLE   MOSUNNY   50  38  63 W10       30.14F
6HR MIN TEMP:  40; 6HR MAX TEMP:  50;

CLINTON        CLOUDY    48  39  71 SW5       30.12F
$$

ARZ036-171900-
EAST ARKANSAS

CITY           SKY/WX    TMP DP  RH WIND       PRES   REMARKS
WEST MEMPHIS   LGT RAIN  52  44  74 VRB5      30.11F
6HR MIN TEMP:  51; 6HR MAX TEMP:  52; 6HR PCP:  0.01;

$$

ARZ050-053-066-070-073-171900-
SOUTHWEST ARKANSAS

CITY           SKY/WX    TMP DP  RH WIND       PRES   REMARKS
ARKADELPHIA    FAIR      54  45  71 CALM      30.15F
6HR MIN TEMP:  50; 6HR MAX TEMP:  54; 6HR PCP:  0.01;

CAMDEN         CLOUDY    55  46  71 CALM      30.15F
TEXARKANA      PTSUNNY   52  42  69 NW8       30.16F
6HR MIN TEMP:  48; 6HR MAX TEMP:  53; 6HR PCP: TRACE;

EL DORADO      PTSUNNY   53  47  79 CALM      30.16F
6HR MIN TEMP:  52; 6HR MAX TEMP:  53; 6HR PCP: TRACE;

DE QUEEN       MOSUNNY   51  41  68 W7        30.16F
6HR MIN TEMP:  43; 6HR MAX TEMP:  51;

$$

ARZ056-057-069-171900-
SOUTHEAST ARKANSAS

CITY           SKY/WX    TMP DP  RH WIND       PRES   REMARKS
PINE BLUFF     PTSUNNY   55  47  74 W6        30.14F
6HR MIN TEMP:  52; 6HR MAX TEMP:  55; 6HR PCP: TRACE;

STUTTGART      CLOUDY    54  43  66 SW7       30.14F
6HR MIN TEMP:  48; 6HR MAX TEMP:  54;

MONTICELLO     LGT RAIN  57  49  74 SW5       30.13F
6HR MIN TEMP:  54; 6HR MAX TEMP:  58; 6HR PCP: TRACE;


$$






USA.gov is the U.S. government's official web portal to all federal, state and local government web resources and services.